Погода в Агуаскальентесе

Мексика     21°52′42″N   102°17′49″W
темп.,
°C
ветер,
м/с
пор.,
м/с
влажн.,
%
обл.,
%
осадки,
мм/ч
давл.,
гПа
погр.,
м
11 мая, вт
вт1101:00+16ю4479100 6.6 1017577
04:00+16ссв3378100 0.1 1014341
07:00+17св2375100 0.1 1014348
10:00+19вюв126270 0.1 1015696
13:00+24ююв1142100 0.6 10121723
16:00+24ююз2238100 0.3 10101353
19:00+16з91080100 4.1 1013341
22:00+19сз2358100 4.0 1014154
12 мая, ср
ср1201:00+19юз346184 4.0 1014270
04:00+18ююз3566100 0.0 1013158
07:00+17зюз2272100 0.1 101528
10:00+21с245198 0.1 1015981
13:00+25с3334100 0.1 10132200
16:00+23зсз10844100 0.1 1012977
19:00+25сз563294 0.1 1011431
22:00+22сз3342100 0.0 101375
13 мая, чт
чт1301:00+21св565463 0.1 1016727
04:00+17вюв597261 1.3 1017583
07:00+16в357035 1.4 1019331
10:00+19в565741 0.0 10191179
13:00+24в563741 0.0 10162097
16:00+25вюв5532100 0.0 10132771
19:00+22в9842100 0.0 10131525
22:00+18в8116064 0.0 1018858
14 мая, пт
пт1401:00+16в6765100 0.2 1020790
04:00+16в566892 0.0 1019648
07:00+15вюв357217 0.0 1019204
10:00+18вюв23555 0.0 1019883
13:00+23ю113812 0.0 10151814
16:00+26ююв113099 0.0 10122694
19:00+20св355397 0.5 1014403
22:00+21в465120 0.1 1014302
15 мая, сб
сб1501:00+18в466224 0.2 1016331
04:00+16с347432 0.3 1016153
07:00+15ссв228213 1.9 101772
10:00+19ю12613 0.2 1017648
13:00+24зюз223923 0.2 10141906
16:00+28ююз342440 0.0 10093358
19:00+28юз442150 0.0 10072876
22:00+25юз352412 0.0 1009116